TimeCST,TemperatureF,Dew PointF,Humidity,Sea Level PressureIn,VisibilityMPH,Wind Direction,Wind SpeedMPH,Gust SpeedMPH,PrecipitationIn,Events,Conditions,WindDirDegrees,DateUTC
12:28 AM,33.8,30.2,87,29.56,1.0,North,10.4,-,0.00,Snow,Light Snow,10,2013-02-26 06:28:00
12:41 AM,33.8,30.2,87,29.56,1.0,North,10.4,18.4,0.00,Snow,Light Snow,10,2013-02-26 06:41:00
12:49 AM,33.8,30.2,87,29.56,0.8,North,10.4,-,0.00,Snow,Light Snow,10,2013-02-26 06:49:00
12:52 AM,33.1,30.9,92,29.57,1.0,North,9.2,-,0.00,Snow,Light Snow,10,2013-02-26 06:52:00
1:03 AM,33.8,30.2,87,29.55,1.2,North,9.2,18.4,0.00,Snow,Light Snow,10,2013-02-26 07:03:00
1:10 AM,33.8,30.2,87,29.55,1.0,North,10.4,19.6,0.00,Snow,Light Snow,10,2013-02-26 07:10:00
1:17 AM,33.8,30.2,87,29.55,1.2,North,10.4,18.4,0.00,Snow,Light Snow,10,2013-02-26 07:17:00
1:40 AM,33.8,30.2,87,29.55,1.0,North,11.5,23.0,0.00,Snow,Light Snow,360,2013-02-26 07:40:00
1:52 AM,33.1,30.9,92,29.56,1.0,North,11.5,20.7,0.00,Snow,Light Snow,360,2013-02-26 07:52:00
2:30 AM,33.8,30.2,87,29.54,0.8,North,12.7,23.0,0.00,Snow,Light Snow,360,2013-02-26 08:30:00
2:52 AM,33.1,30.9,92,29.55,1.0,North,15.0,23.0,0.00,Snow,Light Snow,350,2013-02-26 08:52:00
3:05 AM,33.8,30.2,87,29.53,0.8,North,15.0,-,0.00,Snow,Light Snow,360,2013-02-26 09:05:00
3:39 AM,33.8,30.2,87,29.53,1.2,North,18.4,27.6,0.00,Snow,Light Snow,350,2013-02-26 09:39:00
3:52 AM,33.1,30.9,92,29.54,1.2,North,23.0,33.4,0.00,Snow,Light Snow,350,2013-02-26 09:52:00
3:58 AM,33.8,30.2,87,29.52,1.5,North,20.7,33.4,0.00,Snow,Light Snow,350,2013-02-26 09:58:00
4:11 AM,33.8,30.2,87,29.52,1.0,North,20.7,26.5,0.00,Snow,Light Snow,350,2013-02-26 10:11:00
4:24 AM,33.8,30.2,87,29.52,1.5,North,19.6,29.9,0.00,Snow,Light Snow,350,2013-02-26 10:24:00
4:52 AM,34.0,30.9,89,29.55,2.5,North,18.4,34.5,0.00,Snow,Light Snow,350,2013-02-26 10:52:00
5:07 AM,33.8,30.2,87,29.53,4.0,North,21.9,32.2,0.00,Snow,Light Snow,350,2013-02-26 11:07:00
5:23 AM,33.8,30.2,87,29.53,2.0,North,20.7,33.4,0.00,Snow,Light Snow,350,2013-02-26 11:23:00
5:31 AM,33.8,30.2,87,29.54,3.0,NNW,25.3,32.2,0.00,Snow,Light Snow,340,2013-02-26 11:31:00
5:41 AM,33.8,30.2,87,29.54,2.5,North,21.9,31.1,0.00,Snow,Light Snow,350,2013-02-26 11:41:00
5:52 AM,33.1,30.9,92,29.56,1.8,North,24.2,33.4,0.00,Snow,Light Snow,350,2013-02-26 11:52:00
6:11 AM,33.8,30.2,87,29.56,1.2,NNW,20.7,35.7,0.00,Snow,Light Snow,340,2013-02-26 12:11:00
6:35 AM,33.8,30.2,87,29.57,1.5,NNW,21.9,34.5,0.00,Snow,Light Snow,340,2013-02-26 12:35:00
6:52 AM,33.1,30.0,89,29.58,1.8,NNW,21.9,34.5,0.00,Snow,Light Snow,340,2013-02-26 12:52:00
7:04 AM,33.8,30.2,87,29.57,2.0,NNW,25.3,33.4,0.00,Snow,Light Snow,340,2013-02-26 13:04:00
7:16 AM,33.8,30.2,87,29.56,1.5,North,23.0,32.2,0.00,Snow,Light Snow,350,2013-02-26 13:16:00
7:52 AM,33.1,30.0,89,29.60,2.0,NNW,21.9,29.9,0.00,,Overcast,340,2013-02-26 13:52:00
8:18 AM,33.8,30.2,87,29.60,3.0,NNW,20.7,28.8,0.00,Rain,Light Rain,340,2013-02-26 14:18:00
9:52 AM,34.0,30.0,85,29.66,4.0,NNW,12.7,-,0.00,,Overcast,340,2013-02-26 15:52:00
10:52 AM,34.0,30.9,89,29.69,4.0,NNW,11.5,19.6,0.00,,Overcast,330,2013-02-26 16:52:00
11:36 AM,33.8,30.2,87,29.69,2.0,NW,16.1,24.2,0.00,Snow,Light Snow,320,2013-02-26 17:36:00
11:50 AM,33.8,30.2,87,29.68,2.5,NNW,15.0,-,0.00,Snow,Light Snow,340,2013-02-26 17:50:00
11:52 AM,34.0,30.9,89,29.70,2.5,NNW,12.7,-,0.00,,Overcast,330,2013-02-26 17:52:00
12:01 PM,33.8,30.2,87,29.68,3.0,NNW,15.0,-,N/A,,Overcast,330,2013-02-26 18:01:00
12:38 PM,35.6,30.2,81,29.70,5.0,NW,13.8,23.0,N/A,,Overcast,320,2013-02-26 18:38:00
12:52 PM,34.0,30.0,85,29.72,4.0,NW,15.0,-,N/A,,Overcast,310,2013-02-26 18:52:00
1:52 PM,35.1,30.0,82,29.72,4.0,NNW,13.8,-,N/A,,Haze,330,2013-02-26 19:52:00
2:52 PM,35.1,30.0,82,29.73,4.0,NW,11.5,-,N/A,,Haze,320,2013-02-26 20:52:00
3:29 PM,35.6,30.2,81,29.73,5.0,NW,12.7,-,N/A,,Haze,320,2013-02-26 21:29:00
3:52 PM,35.1,30.0,82,29.75,5.0,NNW,11.5,20.7,N/A,,Haze,330,2013-02-26 21:52:00
4:52 PM,35.1,30.0,82,29.79,5.0,WNW,10.4,-,N/A,,Haze,300,2013-02-26 22:52:00
5:52 PM,35.1,30.0,82,29.82,5.0,WNW,9.2,-,N/A,,Haze,300,2013-02-26 23:52:00
6:52 PM,35.1,30.0,82,29.84,7.0,NW,10.4,-,N/A,,Overcast,310,2013-02-27 00:52:00
7:52 PM,35.1,30.0,82,29.86,7.0,NW,8.1,-,N/A,,Overcast,310,2013-02-27 01:52:00
8:52 PM,35.1,30.0,82,29.90,6.0,WNW,9.2,-,N/A,,Haze,300,2013-02-27 02:52:00
9:52 PM,34.0,28.9,82,29.93,6.0,WNW,9.2,-,N/A,,Haze,290,2013-02-27 03:52:00
10:52 PM,34.0,28.9,82,29.89,6.0,North,-9999.0,-,N/A,,Haze,0,2013-02-27 04:52:00
11:52 PM,34.0,30.0,85,29.91,6.0,NW,6.9,-,N/A,,Overcast,310,2013-02-27 05:52:00